sat.trackr.live / text

‹ back to catalog

STARLINK-33935

NORAD 63791 · 2025-091S

PAYLOAD ACTIVE UNKNOWN

§ Identity

Operator
Country
US
Launch date
2025-05-02
Launch site
AFETR
Launch vehicle
Mass (kg)
RCS (m²)

Purposes: comms

External: N2YO · Heavens-Above · Gunter

§ Orbital elements

Epoch: 2026-09-20T09:05:49.667712Z

Period
94.27 min
Inclination
43.0003°
Eccentricity
0.0001932
Mean motion
15.27590057 rev/d
Perigee alt
481.7 km
Apogee alt
484.3 km
Semi-major
6,861.2 km
B*
2.3577e-4
RAAN
33.3513°
Arg perigee
274.3139°
Mean anomaly
85.7492°
Rev number
7,878

§ Raw data

STARLINK-339351 63791U 25091S   26263.37904708  .00006233  00000+0  23577-3 0  99902 63791  43.0003  33.3513 0001932 274.3139  85.7492 15.27590057 78786

JSON: /api/v1/satellites/63791 · /tle

For live sub-satellite position, see the globe view (requires WebGL).

§ Visibility from observer

Set your observer location to see the next 7 days of passes ≥ 10°. The values pass through the URL so the page stays shareable.

No JS? Fill the form by hand. The geolocation button needs JavaScript.